sat.trackr.live / text

‹ back to catalog

STARLINK-36749

NORAD 67734 · 2026-026P

PAYLOAD ACTIVE UNKNOWN

§ Identity

Operator
Country
US
Launch date
2026-02-11
Launch site
AFWTR
Launch vehicle
Mass (kg)
RCS (m²)

Purposes: comms

External: N2YO · Heavens-Above · Gunter

§ Orbital elements

Epoch: 2026-05-25T03:25:51.557376Z

Period
93.91 min
Inclination
97.2860°
Eccentricity
0.0000370
Mean motion
15.33443570 rev/d
Perigee alt
465.3 km
Apogee alt
465.8 km
Semi-major
6,843.7 km
B*
6.2441e-4
RAAN
198.6827°
Arg perigee
125.3338°
Mean anomaly
234.7940°
Rev number
1,584

§ Raw data

STARLINK-367491 67734U 26026P   26145.14295784  .00020136  00000+0  62441-3 0  99922 67734  97.2860 198.6827 0000370 125.3338 234.7940 15.33443570 15849

JSON: /api/v1/satellites/67734 · /tle

For live sub-satellite position, see the globe view (requires WebGL).

§ Visibility from observer

Set your observer location to see the next 7 days of passes ≥ 10°. The values pass through the URL so the page stays shareable.

No JS? Fill the form by hand. The geolocation button needs JavaScript.